Content
SEND FEEDBACK

Daily
Averages
Monthly
Summary
United Kingdom

RUGBY, ENGLAND


Home > Europe > United Kingdom > England
Elevation: 496 feet     Latitude: 52 28N     Longitude: 001 07W

WEATHER
 
SELECT A DAY
Number of Records: 184,792;   Date Range: 7/1/96 - 9/14/14
 
SHARE

PRINT THIS DATA

[ ← Previous Day ]
WEATHER ALMANAC - JUNE 7, 2014
[ Next Day → ]
[ °C ]   °F
Weather ElementAverageHighLow
Temperature63 °F68 °F (4:20 pm)59 °F (12:50 am)
Dewpoint53.5 °F57.2 °F (12:20 pm)48.2 °F (12:50 am)
Humidity72.2 %94 % (12:20 pm)52 % (6:20 pm)
Barometer29.86 in29.92 in (6:20 pm)29.80 in (8:20 am)
Wind Speed8.7 mph12.7 mph (3:50 pm)
Weather ElementAverage
Visibility5.5 mi
Wind DirectionSSE (144.4 °)

Weather ElementTotal
Precipitation---
Heating Degree Days1.5 (Base 65)
Growing Degree Days13.5 (Base 50)
Averaged from 25 records on June 7, 2014
WEATHER CONDITIONS BREAKOUT
WIND DIRECTION BREAKOUT
WEATHER BY HOUR - JUNE 7, 2014
[ °C ]   °F
Local TimeTemperatureDewpointHumidityBarometerVisibilityWind DirectionWind SpeedGust SpeedPrecipitationEventsConditions
12:50 AM59.0 °F48.2 °F67 %29.86 inEast (80°)8.1 mphClear
1:20 AM59.0 °F48.2 °F67 %29.86 inEast (80°)9.2 mphClear
1:50 AM59.0 °F48.2 °F67 %29.86 inEast (80°)9.2 mphClear
8:20 AM59.0 °F51.8 °F77 %29.80 in6.2 miVariable3.5 mphPartly Cloudy
8:50 AM60.8 °F51.8 °F72 %29.80 in6.2 miNE (50°)8.1 mphPartly Cloudy
9:20 AM60.8 °F53.6 °F77 %29.80 in6.2 miENE (70°)8.1 mphPartly Cloudy
9:50 AM60.8 °F53.6 °F77 %29.80 in6.2 miENE (70°)8.1 mphPartly Cloudy
10:20 AM60.8 °F53.6 °F77 %29.83 in6.2 miESE (120°)6.9 mphRainRain Showers
10:50 AM60.8 °F55.4 °F82 %29.80 in2.5 miVariable3.5 mphRainLight Rain
11:20 AM59.0 °F55.4 °F88 %29.86 in2.5 miSSW (210°)11.5 mphRainRain Showers
11:50 AM59.0 °F55.4 °F88 %29.86 in2.5 miVariable3.5 mphRainRain Showers
12:20 PM59.0 °F57.2 °F94 %29.86 in2.5 miSouth (180°)5.8 mphRainLight Rain Showers
12:50 PM60.8 °F57.2 °F88 %29.86 in5.6 miSW (220°)8.1 mphRainLight Rain Showers
1:20 PM60.8 °F57.2 °F88 %29.86 in6.2 miSW (220°)9.2 mphMostly Cloudy
1:50 PM62.6 °F57.2 °F82 %29.86 in6.2 miVariable5.8 mphScattered Clouds
2:20 PM66.2 °F57.2 °F73 %29.86 in6.2 miWSW (240°)10.4 mphScattered Clouds
2:50 PM66.2 °F55.4 °F68 %29.86 in6.2 miSW (230°)10.4 mphScattered Clouds
3:20 PM66.2 °F55.4 °F68 %29.89 in6.2 miSW (220°)10.4 mphScattered Clouds
3:50 PM66.2 °F55.4 °F68 %29.89 in6.2 miSSW (210°)12.7 mphScattered Clouds
4:20 PM68.0 °F53.6 °F60 %29.89 in6.2 miSW (230°)12.7 mphScattered Clouds
4:50 PM68.0 °F53.6 °F60 %29.89 in6.2 miSW (230°)12.7 mphScattered Clouds
5:20 PM68.0 °F51.8 °F56 %29.89 in6.2 miSW (220°)11.5 mphScattered Clouds
5:50 PM68.0 °F51.8 °F56 %29.89 in6.2 miSSW (210°)9.2 mphPartly Cloudy
6:20 PM68.0 °F50.0 °F52 %29.92 in6.2 miSW (220°)11.5 mphPartly Cloudy
6:50 PM68.0 °F50.0 °F52 %29.92 in6.2 miSW (220°)8.1 mphPartly Cloudy
Hourly data recorded from EGBE, located miles away from Rugby, England







STORIES FROM OUR PARTNERS